Starlink 31004

operational
NORAD ID: 58528 Int'l Des: 2023-191 Owner: SPXS Country: US Constellation: starlink
LEOCIRCULAR

关于 Starlink 31004

正在加载描述...

实时位置

正在加载3D地球...

即将过境

高度历史

Altitude vs Time

uPlot chart will show altitude changes over time

两行轨道根数

1 58528U 23191W 25257.52459373 -.00000448 00000-0 -18060-4 0 9990
2 58528 43.0030 343.0289 0001208 273.7396 86.3308 15.02532094 98946
Epoch: Sep 14, 2025 • Age: 23 hours

当前状态

高度 560.6 km
速度 7.59 km/s
星下点 31.06°N, 49.41°W
发射日期 Dec 7, 2023
运行时间 1.7 years
类型 internet

技术详情

分类 Payload
质量 730.00 kg
干质量 700.00 kg
总质量 730.00 kg
长度 0.30 m
直径 4.10 m
跨度 29.00 m
形状 Box + pan
制造商 SPXS
平台类型 Starlink V2M
阶段状态 In Orbit
所有者/国家 SPXS/US

大型星座

Loading constellations...